This is the latest recevied weather packets stored in our database for station/object SP7QPD-1. If no packets are shown the sender has not sent any weather packets the latest 10 day(s).
| Time | Temp. | Humidity | Pressure | Rain* | Wind** | Luminosity | Snow |
|---|---|---|---|---|---|---|---|
| 1777563048 | 13.89° C | 32% | 1027 hPa | 0 mm | - | - | - |
| 1777562447 | 13.33° C | 33% | 1027.1 hPa | 0 mm | - | - | - |
| 1777561847 | 13.89° C | 31% | 1027.1 hPa | 0 mm | - | - | - |
| 1777561247 | 13.89° C | 31% | 1027.2 hPa | 0 mm | - | - | - |
| 1777560647 | 15° C | 31% | 1027.2 hPa | 0 mm | - | - | - |
| 1777560047 | 14.44° C | 31% | 1027.2 hPa | 0 mm | - | - | - |
| 1777559447 | 13.33° C | 31% | 1027.3 hPa | 0 mm | - | - | - |
| 1777558847 | 13.33° C | 31% | 1027.5 hPa | 0 mm | - | - | - |
| 1777558247 | 13.33° C | 30% | 1027.6 hPa | 0 mm | - | - | - |
| 1777557647 | 13.89° C | 29% | 1027.7 hPa | 0 mm | - | - | - |
| 1777557047 | 13.89° C | 30% | 1027.6 hPa | 0 mm | - | - | - |
| 1777556447 | 13.89° C | 31% | 1027.7 hPa | 0 mm | - | - | - |
| 1777555846 | 14.44° C | 30% | 1027.8 hPa | 0 mm | - | - | - |
| 1777555246 | 13.89° C | 31% | 1027.8 hPa | 0 mm | - | - | - |
| 1777554646 | 13.33° C | 32% | 1027.8 hPa | 0 mm | - | - | - |
| 1777554046 | 12.78° C | 31% | 1028 hPa | 0 mm | - | - | - |
| 1777553446 | 12.22° C | 31% | 1028.1 hPa | 0 mm | - | - | - |
| 1777552846 | 11.67° C | 31% | 1028.5 hPa | 0 mm | - | - | - |
| 1777552246 | 12.22° C | 32% | 1028.5 hPa | 0 mm | - | - | - |
| 1777551646 | 12.78° C | 32% | 1028.7 hPa | 0 mm | - | - | - |
| 1777551046 | 12.78° C | 31% | 1028.6 hPa | 0 mm | - | - | - |
| 1777550446 | 13.33° C | 31% | 1028.5 hPa | 0 mm | - | - | - |
| 1777549846 | 12.78° C | 32% | 1028.6 hPa | 0 mm | - | - | - |
| 1777549246 | 12.22° C | 32% | 1028.7 hPa | 0 mm | - | - | - |
| 1777548646 | 12.22° C | 34% | 1028.7 hPa | 0 mm | - | - | - |
* Rain latest hour (hover to see other rain measurements)
** Current wind speed in m/s (hover to see current wind gust speed)